カタログに戻る

USA 409

運用中軍事VLEO
NORAD 61030·PAYLOAD·🇺🇸 United States

打ち上げ Sep 6, 2024 から Vandenberg Space Force Base

Loading…

次のパス (今後24時間)

TLE

古いSource: Mike McCants

元期: Sep 9, 2026, 20:49 UTC

1 61030U 24160K   26252.86791069 0.00000000  00000-0  00000-0 0    09
2 61030  70.0200 159.2307 0002000 182.1649 177.8351 14.96713243    03

AllMySatでUSA 409をリアルタイム追跡

Download on the App Store